| time (UTC) | temp F | wind direction | speed MPH | gust MPH | rain 1hr in | rain 24hr in | rain mn in | humidity % | barometer mb |
| 20260902102239 | 77 | 59 | 0.0 | 0.0 | 0.00 | 0.00 | 0.00 | 94 | 1015.7 |
| 20260902100043 | 78 | 59 | 0.0 | 0.0 | 0.00 | 0.00 | 0.00 | 94 | 1015.3 |
| 20260902094522 | 78 | 59 | 0.0 | 0.0 | 0.00 | 0.00 | 0.00 | 93 | 1015.2 |
| 20260902093009 | 78 | 67 | 0.0 | 0.0 | 0.00 | 0.00 | 0.00 | 93 | 1015.3 |
| 20260902091508 | 78 | 59 | 0.0 | 0.0 | 0.00 | 0.00 | 0.00 | 93 | 1015.3 |
| 20260902090658 | 78 | 53 | 0.0 | 0.0 | 0.00 | 0.00 | 0.00 | 93 | 1015.4 |
| 20260902084458 | 78 | 346 | 0.0 | 0.0 | 0.00 | 0.00 | 0.00 | 93 | 1015.4 |
| 20260902082942 | 79 | 49 | 0.0 | 6.0 | 0.00 | 0.00 | 0.00 | 92 | 1015.5 |
| 20260902082122 | 79 | 64 | 1.0 | 6.0 | 0.00 | 0.00 | 0.00 | 92 | 1015.3 |
| 20260902080634 | 79 | 66 | 1.0 | 4.0 | 0.00 | 0.00 | 0.00 | 92 | 1015.1 |
| 20260902074433 | 80 | 57 | 0.0 | 6.0 | 0.00 | 0.00 | 0.00 | 92 | 1014.9 |
| 20260902072922 | 80 | 53 | 0.0 | 2.0 | 0.00 | 0.00 | 0.00 | 90 | 1015.0 |
| 20260902071416 | 80 | 36 | 0.0 | 0.0 | 0.00 | 0.00 | 0.00 | 89 | 1015.0 |
| 20260902065906 | 81 | 36 | 0.0 | 0.0 | 0.00 | 0.00 | 0.00 | 88 | 1014.9 |
| 20260902064403 | 81 | 36 | 0.0 | 2.0 | 0.00 | 0.00 | 0.00 | 86 | 1014.8 |
| 20260902062904 | 81 | 278 | 1.0 | 5.0 | 0.00 | 0.00 | 0.00 | 85 | 1014.6 |
| 20260902062056 | 82 | 285 | 1.0 | 6.0 | 0.00 | 0.00 | 0.00 | 83 | 1014.6 |
| 20260902060550 | 82 | 263 | 1.0 | 4.0 | 0.00 | 0.00 | 0.00 | 82 | 1014.5 |
| 20260902055040 | 83 | 268 | 0.0 | 5.0 | 0.00 | 0.00 | 0.00 | 81 | 1014.5 |
| 20260902052841 | 83 | 283 | 0.0 | 5.0 | 0.00 | 0.00 | 0.00 | 80 | 1014.5 |
| 20260902051336 | 84 | 263 | 0.0 | 2.0 | 0.00 | 0.00 | 0.00 | 80 | 1014.8 |
| 20260902045810 | 84 | 263 | 0.0 | 2.0 | 0.00 | 0.00 | 0.00 | 80 | 1014.8 |
| 20260902044308 | 84 | 263 | 0.0 | 1.0 | 0.00 | 0.00 | 0.00 | 80 | 1014.5 |
| 20260902043507 | 85 | 263 | 0.0 | 2.0 | 0.00 | 0.00 | 0.00 | 79 | 1014.2 |
| 20260902041256 | 85 | 263 | 0.0 | 6.0 | 0.00 | 0.00 | 0.00 | 78 | 1014.2 |
| 20260902035751 | 85 | 284 | 2.0 | 8.0 | 0.00 | 0.00 | 0.00 | 77 | 1014.1 |
| 20260902034250 | 85 | 279 | 2.0 | 8.0 | 0.00 | 0.00 | 0.00 | 78 | 1013.8 |
| 20260902032750 | 86 | 298 | 3.0 | 8.0 | 0.00 | 0.00 | 0.00 | 78 | 1013.5 |
| 20260902031245 | 86 | 312 | 3.0 | 8.0 | 0.00 | 0.00 | 0.00 | 79 | 1013.4 |
| 20260902030451 | 86 | 290 | 2.0 | 5.0 | 0.00 | 0.00 | 0.00 | 81 | 1013.3 |
| 20260902024952 | 87 | 278 | 1.0 | 6.0 | 0.00 | 0.00 | 0.00 | 80 | 1013.4 |
| 20260902022744 | 87 | 281 | 3.0 | 7.0 | 0.00 | 0.00 | 0.00 | 80 | 1013.7 |
| 20260902021243 | 86 | 279 | 1.0 | 5.0 | 0.00 | 0.00 | 0.00 | 84 | 1013.5 |
| 20260902015744 | 86 | 283 | 0.0 | 2.0 | 0.00 | 0.00 | 0.00 | 84 | 1013.4 |
| 20260902014241 | 87 | 273 | 0.0 | 4.0 | 0.00 | 0.00 | 0.00 | 84 | 1013.2 |
| 20260902012740 | 87 | 299 | 0.0 | 4.0 | 0.00 | 0.00 | 0.00 | 83 | 1013.3 |
| 20260902011233 | 88 | 286 | 0.0 | 2.0 | 0.00 | 0.00 | 0.00 | 82 | 1012.9 |
| 20260902005731 | 89 | 283 | 1.0 | 7.0 | 0.00 | 0.00 | 0.00 | 80 | 1013.0 |
| 20260902004923 | 89 | 298 | 1.0 | 6.0 | 0.00 | 0.00 | 0.00 | 79 | 1012.7 |
| 20260902003417 | 89 | 234 | 1.0 | 6.0 | 0.00 | 0.00 | 0.00 | 79 | 1012.3 |
| 20260902001223 | 90 | 192 | 2.0 | 6.0 | 0.00 | 0.00 | 0.00 | 77 | 1012.1 |
| 20260901235724 | 90 | 261 | 2.0 | 7.0 | 0.00 | 0.00 | 0.00 | 76 | 1011.9 |
| 20260901234222 | 91 | 217 | 1.0 | 7.0 | 0.00 | 0.00 | 0.00 | 74 | 1011.9 |
| 20260901232718 | 92 | 220 | 2.0 | 5.0 | 0.00 | 0.00 | 0.00 | 73 | 1012.1 |
| 20260901231210 | 92 | 196 | 2.0 | 8.0 | 0.00 | 0.00 | 0.00 | 72 | 1012.2 |
| 20260901225707 | 92 | 202 | 3.0 | 9.0 | 0.00 | 0.00 | 0.00 | 71 | 1012.4 |
| 20260901224206 | 92 | 171 | 3.0 | 9.0 | 0.00 | 0.00 | 0.00 | 71 | 1012.2 |
| 20260901223400 | 93 | 195 | 2.0 | 8.0 | 0.00 | 0.00 | 0.00 | 70 | 1012.4 |
| 20260901221915 | 93 | 201 | 2.0 | 10.0 | 0.00 | 0.00 | 0.00 | 69 | 1012.4 |
| 20260901215700 | 94 | 204 | 4.0 | 10.0 | 0.00 | 0.00 | 0.00 | 67 | 1012.4 |
| 20260901214157 | 95 | 232 | 2.0 | 8.0 | 0.00 | 0.00 | 0.00 | 66 | 1012.6 |
| 20260901212658 | 96 | 296 | 4.0 | 12.0 | 0.00 | 0.00 | 0.00 | 65 | 1012.6 |
| 20260901211153 | 96 | 285 | 3.0 | 11.0 | 0.00 | 0.00 | 0.00 | 65 | 1012.6 |
| 20260901205649 | 95 | 257 | 4.0 | 10.0 | 0.00 | 0.00 | 0.00 | 65 | 1012.7 |
| 20260901204147 | 95 | 230 | 4.0 | 10.0 | 0.00 | 0.00 | 0.00 | 65 | 1012.8 |
| 20260901202644 | 96 | 295 | 4.0 | 10.0 | 0.00 | 0.00 | 0.00 | 65 | 1012.9 |
| 20260901201142 | 95 | 253 | 5.0 | 12.0 | 0.00 | 0.00 | 0.00 | 65 | 1013.0 |
| 20260901195640 | 96 | 300 | 4.0 | 9.0 | 0.00 | 0.00 | 0.00 | 65 | 1013.1 |
| 20260901194140 | 95 | 296 | 3.0 | 12.0 | 0.00 | 0.00 | 0.00 | 66 | 1013.1 |
| 20260901192640 | 94 | 235 | 3.0 | 12.0 | 0.00 | 0.00 | 0.00 | 65 | 1013.4 |
| 20260901191140 | 96 | 271 | 2.0 | 11.0 | 0.00 | 0.00 | 0.00 | 64 | 1013.7 |
| 20260901185639 | 94 | 309 | 5.0 | 16.0 | 0.00 | 0.00 | 0.00 | 65 | 1013.8 |
| 20260901184141 | 95 | 292 | 3.0 | 11.0 | 0.00 | 0.00 | 0.00 | 68 | 1013.7 |
| 20260901182638 | 93 | 292 | 3.0 | 10.0 | 0.00 | 0.00 | 0.00 | 70 | 1013.6 |
| 20260901181134 | 93 | 242 | 4.0 | 10.0 | 0.00 | 0.00 | 0.00 | 69 | 1013.6 |
| 20260901175635 | 96 | 300 | 1.0 | 10.0 | 0.00 | 0.00 | 0.00 | 66 | 1013.7 |
| 20260901174132 | 94 | 267 | 2.0 | 9.0 | 0.00 | 0.00 | 0.00 | 68 | 1013.6 |
| 20260901172631 | 93 | 228 | 2.0 | 7.0 | 0.00 | 0.00 | 0.00 | 70 | 1013.8 |
| 20260901171117 | 93 | 213 | 3.0 | 10.0 | 0.00 | 0.00 | 0.00 | 69 | 1013.9 |
| 20260901165609 | 94 | 242 | 3.0 | 11.0 | 0.00 | 0.00 | 0.00 | 70 | 1014.1 |
| 20260901164108 | 93 | 278 | 1.0 | 7.0 | 0.00 | 0.00 | 0.00 | 73 | 1014.3 |
| 20260901163257 | 92 | 296 | 2.0 | 9.0 | 0.00 | 0.00 | 0.00 | 73 | 1014.4 |
| 20260901161057 | 92 | 286 | 3.0 | 11.0 | 0.00 | 0.00 | 0.00 | 74 | 1014.6 |
| 20260901155558 | 92 | 252 | 3.0 | 8.0 | 0.00 | 0.00 | 0.00 | 74 | 1014.8 |
| 20260901154750 | 90 | 209 | 3.0 | 9.0 | 0.00 | 0.00 | 0.00 | 75 | 1015.0 |
| 20260901153257 | 90 | 217 | 2.0 | 6.0 | 0.00 | 0.00 | 0.00 | 76 | 1015.2 |
| 20260901151053 | 90 | 185 | 1.0 | 6.0 | 0.00 | 0.00 | 0.00 | 78 | 1015.3 |
| 20260901145551 | 89 | 207 | 2.0 | 7.0 | 0.00 | 0.00 | 0.00 | 76 | 1015.2 |
| 20260901144047 | 87 | 267 | 1.0 | 6.0 | 0.00 | 0.00 | 0.00 | 79 | 1015.4 |
| 20260901142540 | 88 | 217 | 0.0 | 0.0 | 0.00 | 0.00 | 0.00 | 79 | 1015.3 |
| 20260901141043 | 88 | 247 | 0.0 | 0.0 | 0.00 | 0.00 | 0.00 | 79 | 1015.3 |
| 20260901135539 | 87 | 171 | 0.0 | 0.0 | 0.00 | 0.00 | 0.00 | 81 | 1015.3 |
| 20260901134036 | 86 | 183 | 0.0 | 0.0 | 0.00 | 0.00 | 0.00 | 83 | 1015.3 |
| 20260901132527 | 84 | 211 | 0.0 | 0.0 | 0.00 | 0.00 | 0.00 | 85 | 1015.5 |
| 20260901131015 | 83 | 211 | 0.0 | 0.0 | 0.00 | 0.00 | 0.00 | 89 | 1015.5 |
| 20260901125504 | 82 | 214 | 0.0 | 0.0 | 0.00 | 0.00 | 0.00 | 91 | 1015.7 |
| 20260901124006 | 81 | 215 | 0.0 | 0.0 | 0.00 | 0.00 | 0.00 | 92 | 1015.7 |
| 20260901122453 | 80 | 216 | 0.0 | 0.0 | 0.00 | 0.00 | 0.00 | 93 | 1015.8 |
| 20260901120951 | 80 | 186 | 0.0 | 0.0 | 0.00 | 0.00 | 0.00 | 95 | 1015.7 |
| 20260901115448 | 79 | 213 | 0.0 | 0.0 | 0.00 | 0.00 | 0.00 | 95 | 1015.5 |
| 20260901113940 | 79 | 214 | 0.0 | 0.0 | 0.00 | 0.00 | 0.00 | 96 | 1015.3 |
| 20260901112439 | 78 | 266 | 0.0 | 0.0 | 0.00 | 0.00 | 0.00 | 97 | 1015.2 |
| 20260901110932 | 77 | 198 | 0.0 | 0.0 | 0.00 | 0.00 | 0.00 | 98 | 1015.1 |
| 20260901105428 | 77 | 200 | 0.0 | 0.0 | 0.00 | 0.00 | 0.00 | 99 | 1015.2 |
| 20260901103923 | 77 | 200 | 0.0 | 0.0 | 0.00 | 0.00 | 0.00 | 99 | 1015.0 |